Weather History for Greybull, WY

Change the Weather History Date:

Friday, March 1, 2013

  Actual Average Record
Temperature  
Mean Temperature 30 °F 30 °F  
Max Temperature 44 °F 44 °F 67 °F (1992)
Min Temperature 15 °F 18 °F -7 °F (2014)
Degree Days  
Heating Degree Days 35 35  
Month to date heating degree days 35 35  
Since 1 July heating degree days 5909 6006  
Cooling Degree Days 0 0  
Month to date cooling degree days 0 0  
Year to date cooling degree days 0 0  
Moisture  
Dew Point 20 °F    
Average Humidity 64    
Maximum Humidity 84    
Minimum Humidity 43    
Precipitation  
Precipitation 0.00 in 0.01 in 0.14 in (1976)
Month to date precipitation 0.00 0.01  
Year to date precipitation 0.42 0.42  
Sea Level Pressure  
Sea Level Pressure 30.41 in    
Wind  
Wind Speed 3 mph (ESE)    
Max Wind Speed 10 mph    
Max Gust Speed 14 mph    
Visibility 10 miles    
Events      
T = Trace of Precipitation, MM = Missing Value Source: NWS Daily Summary

Daily Weather History Graph

Daily Weather History Graph

Search for Another Location

Airport:

Trip Planner

Search our weather history database for the weather conditions in past years. The results will help you decide how hot, cold, wet, or windy it might be!

Date:

Astronomy

Mar. 01, 2013 Rise Set
Actual Time 6:49 AM MST 6:00 PM MST
Civil Twilight 6:19 AM MST 6:29 PM MST
Nautical Twilight 5:46 AM MST 7:03 PM MST
Astronomical Twilight 5:12 AM MST 7:37 PM MST
Moon 10:50 PM MST 8:26 AM MST
Length of Visible Light 12h 09m
Length of Day
11h 11m
Waning Gibbous, 83% of the Moon is Illuminated
Mar 1
Waning Gibbous
Mar 4
Last Quarter
Mar 11
New
Mar 19
First Quarter
Mar 27
Full

Hourly Weather History & Observations

Time (MST) Temp. Windchill Dew Point Humidity Pressure Visibility Wind Dir Wind Speed Gust Speed Precip Events Conditions
12:53 AM 15.1 °F - 10.9 °F 84% 30.42 in 10.0 mi Calm Calm - N/A   Clear
1:53 AM 17.1 °F - 12.9 °F 84% 30.42 in 10.0 mi Calm Calm - N/A   Scattered Clouds
2:53 AM 17.1 °F 10.0 °F 12.0 °F 81% 30.41 in 10.0 mi ESE 4.6 mph - N/A   Overcast
3:53 AM 19.9 °F 14.9 °F 12.9 °F 74% 30.40 in 10.0 mi SE 3.5 mph - N/A   Overcast
4:53 AM 19.9 °F 14.9 °F 14.0 °F 78% 30.41 in 10.0 mi SE 3.5 mph - N/A   Overcast
5:53 AM 19.9 °F - 15.1 °F 81% 30.43 in 10.0 mi Calm Calm - N/A   Overcast
6:53 AM 19.0 °F - 15.1 °F 85% 30.44 in 10.0 mi Calm Calm - N/A   Partly Cloudy
7:53 AM 21.0 °F - 16.0 °F 81% 30.47 in 10.0 mi Calm Calm - N/A   Overcast
8:53 AM 24.1 °F - 17.1 °F 75% 30.48 in 10.0 mi Calm Calm - N/A   Overcast
9:53 AM 26.1 °F 19.4 °F 18.0 °F 71% 30.48 in 10.0 mi ESE 5.8 mph - N/A   Overcast
10:53 AM 32.0 °F 26.4 °F 21.0 °F 64% 30.45 in 10.0 mi SSW 5.8 mph - N/A   Mostly Cloudy
11:53 AM 36.0 °F - 21.0 °F 55% 30.43 in 10.0 mi Calm Calm - N/A   Overcast
12:53 PM 39.9 °F 35.8 °F 19.9 °F 45% 30.39 in 10.0 mi ESE 5.8 mph - N/A   Overcast
1:53 PM 41.0 °F 36.4 °F 23.0 °F 49% 30.37 in 10.0 mi East 6.9 mph - N/A   Overcast
3:53 PM 43.0 °F 40.3 °F 24.1 °F 47% 30.35 in 10.0 mi South 4.6 mph - N/A   Partly Cloudy
4:53 PM 43.0 °F 38.2 °F 25.0 °F 49% 30.36 in 10.0 mi East 8.1 mph - N/A   Partly Cloudy
5:53 PM 39.0 °F 34.8 °F 27.0 °F 62% 30.37 in 10.0 mi ESE 5.8 mph - N/A   Mostly Cloudy
6:53 PM 36.0 °F 29.6 °F 27.0 °F 70% 30.38 in 10.0 mi SE 8.1 mph - N/A   Mostly Cloudy
7:53 PM 35.1 °F 30.1 °F 26.1 °F 70% 30.39 in 10.0 mi ESE 5.8 mph - N/A   Clear
8:53 PM 35.1 °F 32.2 °F 26.1 °F 70% 30.39 in 10.0 mi ESE 3.5 mph - N/A   Clear
9:53 PM 32.0 °F - 26.1 °F 79% 30.40 in 10.0 mi Calm Calm - N/A   Clear
10:53 PM 32.0 °F - 26.1 °F 79% 30.38 in 10.0 mi Calm Calm - N/A   Clear
11:53 PM 30.9 °F 26.2 °F 25.0 °F 79% 30.37 in 10.0 mi East 4.6 mph - N/A   Clear